Location: Unspecified
(34.4500°N, 0.0000°E)
Time: 14:12:31
(UTC+00:00)

Envisat - Pass Details

Date: 14 March 2021
Orbit: 764 x 766 km, 98.1° (Epoch: 17 April)

Event Time Altitude Azimuth Distance (km) Brightness Sun altitude
Rises 04:52:48 0° 24° (NNE) 3,235 6.7 -17.1°
Reaches altitude 10° 04:55:21 10° 34° (NE) 2,305 6.1 -16.6°
Maximum altitude 04:59:52 32° 97° (E) 1,291 4.9 -15.6°
Drops below altitude 10° 05:04:22 10° 160° (SSE) 2,291 5.6 -14.7°
Sets 05:06:52 0° 170° (S) 3,212 6.3 -14.2°
